Home   Weather   Ottawa   Past weeks
Flag for Canada

Past Weather in Ottawa, Ontario, Canada — Yesterday and Last 2 Weeks

Now
63 °F

Broken clouds.


Feels Like: 63 °F
Forecast: N/A
Wind: 17 mph from Northwest

Location: Ottawa Int'L. Ont.

Current Time: May 21, 2019 at 7:21:27 pm

Latest Report: May 21, 2019 at 6:00 pm


Visibility: 15 mi

Pressure: 30.05 "Hg

Humidity: 34%

Dew Point: 34 °F

Location of OttawaLocation

Past Weather in Ottawa — Graph

°F

Ottawa Temperature Yesterday

Maximum temperature yesterday: 70 °F (at 1:00 pm)
Minimum temperature yesterday: 50 °F (at 10:00 pm)
Average temperature yesterday: 59 °F

High & Low Weather Summary for the Past Weeks

 TemperatureHumidityPressure
High70 °F (May 6, 6:00 pm)100% (May 10, 12:00 am)30.45 "Hg (May 10, 12:00 am)
Low36 °F (May 8, 3:55 am)26% (May 8, 3:00 pm)29.61 "Hg (May 20, 1:00 pm)
Average51 °F71%29.95 "Hg
* Reported May 6 6:00 pm — May 21 6:00 pm, Ottawa. Weather by CustomWeather, © 2019

Note: Actual official high and low records may vary slightly from our data, if they occured in-between our weather recording intervals... More about our weather records

Advertising

Ottawa Weather History for the Previous 24 Hours

Scroll right to see more
 ConditionsComfort  
Time TempWeatherWind HumidityBarometerVisibility
6:00 pm
Tue, May 21
63 °FBroken clouds.17 mph34%30.05 "Hg15 mi
5:00 pm64 °FBroken clouds.20 mph32%30.04 "Hg15 mi
4:00 pm64 °FPartly sunny.25 mph32%30.03 "Hg15 mi
3:00 pm63 °FPartly sunny.22 mph34%30.00 "Hg15 mi
2:00 pm61 °FPartly sunny.21 mph39%29.98 "Hg15 mi
1:10 pm59 °FPartly sunny.15 mph45%29.98 "Hg15 mi
1:00 pm57 °FScattered clouds.22 mph48%29.98 "Hg15 mi
12:00 pm55 °FPartly sunny.25 mph51%29.97 "Hg15 mi
11:00 am54 °FScattered clouds.26 mph54%29.95 "Hg15 mi
10:00 am50 °FScattered clouds.24 mph62%29.95 "Hg15 mi
9:00 am48 °FScattered clouds.25 mph71%29.93 "Hg15 mi
8:00 am48 °FPartly sunny.22 mph71%29.91 "Hg15 mi
7:00 am46 °FScattered clouds.17 mph76%29.90 "Hg15 mi
6:00 am46 °FPartly sunny.14 mph76%29.89 "Hg15 mi
5:00 am46 °FPassing clouds.9 mph76%29.88 "Hg15 mi
4:00 am46 °FPassing clouds.14 mph76%29.86 "Hg15 mi
3:00 am46 °FPassing clouds.12 mph76%29.83 "Hg15 mi
2:00 am46 °FMostly cloudy.16 mph76%29.84 "Hg15 mi
1:00 am48 °FMostly cloudy.16 mph76%29.84 "Hg15 mi
12:00 am48 °FMostly cloudy.15 mph76%29.85 "Hg15 mi
11:00 pm
Mon, May 20
50 °FMostly cloudy.15 mph76%29.83 "Hg15 mi
10:00 pm50 °FMostly cloudy.18 mph76%29.81 "Hg15 mi
9:19 pm52 °FOvercast.18 mph77%29.79 "Hg15 mi
8:49 pm52 °FOvercast.16 mph77%29.78 "Hg15 mi
8:00 pm55 °FMostly cloudy.21 mph67%29.74 "Hg15 mi
7:00 pm55 °FOvercast.21 mph67%29.72 "Hg15 mi
Weather by CustomWeather, © 2019

See weather overview